Вернуться в каталог

THOR ABLESTAR DEB

АктивенLEO
NORAD 354·DEBRIS·🇺🇸 United States

Запущен Jun 29, 1961 с Cape Canaveral Space Force Station

Loading…

Ближайшие Пролёты (ближайшие 24 часа)

TLE

СвежийSource: Space-Track

Эпоха: Sep 5, 2026, 12:45 UTC

1 00354U 61015DU  26248.53153191  .00000188  00000-0  36989-3 0  9990
2 00354  67.0653 279.1926 0172244 253.7009 184.8560 13.49478439488715

Отслеживайте THOR ABLESTAR DEB в реальном времени с AllMySat

Download on the App Store